Weather History for Covington, KY

Change the Weather History Date:

Saturday, May 5, 2012

  Actual Average Record
Temperature  
Mean Temperature 72 °F 60 °F  
Max Temperature 79 °F 71 °F 92 °F (1959)
Min Temperature 64 °F 50 °F 33 °F (1979)
Degree Days  
Heating Degree Days 0 6  
Month to date heating degree days 0 32  
Since 1 July heating degree days 3977 4866  
Cooling Degree Days 7 1  
Month to date cooling degree days 37 5  
Year to date cooling degree days 81 23  
Growing Degree Days 22 (Base 50)    
Moisture  
Dew Point 64 °F    
Average Humidity 78    
Maximum Humidity 93    
Minimum Humidity 62    
Precipitation  
Precipitation 0.13 in 0.16 in 1.96 in (2013)
Month to date precipitation 1.03 0.80  
Year to date precipitation 14.39 14.46  
Snow  
Snow 0.00 in 0.00 in 0.10 in (1992)
Month to date snowfall 0.0 0.0  
Since 1 July snowfall 5.6 22.1  
Snow Depth 0.00 in    
Sea Level Pressure  
Sea Level Pressure 29.93 in    
Wind  
Wind Speed 5 mph (NNW)    
Max Wind Speed 12 mph    
Max Gust Speed 15 mph    
Visibility 7 miles    
Events Rain , Thunderstorm    
T = Trace of Precipitation, MM = Missing Value Source: NWS Daily Summary

Daily Weather History Graph

Daily Weather History Graph

Search for Another Location

Airport:

Trip Planner

Search our weather history database for the weather conditions in past years. The results will help you decide how hot, cold, wet, or windy it might be!

Date:

Astronomy

May. 05, 2012 Rise Set
Actual Time 6:35 AM EDT 8:35 PM EDT
Civil Twilight 6:06 AM EDT 9:05 PM EDT
Nautical Twilight 5:30 AM EDT 9:40 PM EDT
Astronomical Twilight 4:52 AM EDT 10:19 PM EDT
Moon 8:27 PM EDT (5/5) 5:57 AM EDT (5/5)
Length of Visible Light 14h 59m
Length of Day
14h 00m
Full, 100% of the Moon is Illuminated
May 5
Full
May 5
Full
May 12
Last Quarter
May 20
New
May 28
First Quarter

Hourly Weather History & Observations

Time (EDT) Temp. Dew Point Humidity Pressure Visibility Wind Dir Wind Speed Gust Speed Precip Events Conditions
12:08 AM 68.0 °F 62.6 °F 83% 29.93 in 10.0 mi SW 9.2 mph - 0.00 in Rain , Thunderstorm Light Thunderstorms and Rain
12:52 AM 66.0 °F 64.0 °F 93% 29.91 in 4.0 mi SSW 8.1 mph - 0.13 in Rain , Thunderstorm Thunderstorms and Rain
1:52 AM 66.0 °F 63.0 °F 90% 29.90 in 6.0 mi WSW 4.6 mph - 0.12 in Rain , Thunderstorm Light Thunderstorms and Rain
2:13 AM 64.4 °F 62.6 °F 94% 29.91 in 9.0 mi SW 6.9 mph - 0.01 in Rain Light Rain
2:34 AM 64.4 °F 64.4 °F 100% 29.91 in 8.0 mi Calm Calm - 0.02 in Rain Light Rain
2:52 AM 64.9 °F 63.0 °F 93% 29.88 in 8.0 mi NW 3.5 mph - 0.02 in Rain Light Rain
3:14 AM 64.4 °F 64.4 °F 100% 29.90 in 8.0 mi Calm Calm - 0.01 in Rain Light Rain
3:52 AM 64.9 °F 64.0 °F 97% 29.87 in 3.0 mi Calm Calm - 0.01 in   Overcast
4:09 AM 64.4 °F 62.6 °F 94% 29.90 in 6.0 mi Calm Calm - N/A   Overcast
4:20 AM 64.4 °F 62.6 °F 94% 29.90 in 4.0 mi SSW 3.5 mph - N/A   Overcast
4:52 AM 64.9 °F 63.0 °F 93% 29.88 in 8.0 mi South 4.6 mph - 0.00 in Rain Light Rain
5:17 AM 64.4 °F 62.6 °F 94% 29.91 in 6.0 mi SSW 5.8 mph - 0.00 in   Overcast
5:52 AM 64.9 °F 63.0 °F 93% 29.87 in 6.0 mi Calm Calm - 0.00 in   Overcast
6:30 AM 64.4 °F 62.6 °F 94% 29.92 in 7.0 mi SSW 4.6 mph - N/A   Overcast
6:39 AM 64.4 °F 62.6 °F 94% 29.93 in 7.0 mi SW 5.8 mph - N/A   Overcast
6:52 AM 64.0 °F 63.0 °F 96% 29.92 in 6.0 mi West 8.1 mph - 0.00 in Rain Light Rain
7:13 AM 64.4 °F 62.6 °F 94% 29.94 in 2.0 mi West 4.6 mph - 0.00 in Rain Light Rain
7:52 AM 64.9 °F 63.0 °F 93% 29.92 in 2.0 mi WNW 5.8 mph - 0.00 in   Overcast
8:36 AM 64.4 °F 64.4 °F 100% 29.95 in 0.8 mi NNW 3.5 mph - N/A   Overcast
8:52 AM 66.0 °F 64.0 °F 93% 29.92 in 0.5 mi NNW 3.5 mph - N/A   Overcast
9:41 AM 66.2 °F 64.4 °F 94% 29.95 in 0.5 mi North 4.6 mph - 0.00 in Rain Light Rain
9:52 AM 68.0 °F 64.9 °F 90% 29.93 in 3.0 mi NNW 4.6 mph - 0.00 in   Mostly Cloudy
10:52 AM 70.0 °F 64.9 °F 84% 29.94 in 9.0 mi NW 5.8 mph - N/A   Overcast
11:52 AM 72.0 °F 64.9 °F 78% 29.94 in 10.0 mi North 3.5 mph - N/A   Overcast
12:52 PM 73.9 °F 66.0 °F 76% 29.94 in 9.0 mi NE 8.1 mph - N/A   Mostly Cloudy
1:52 PM 75.9 °F 64.9 °F 69% 29.93 in 9.0 mi NE 9.2 mph - N/A   Overcast
2:43 PM 77.0 °F 64.4 °F 65% 29.95 in 9.0 mi NE 8.1 mph - N/A   Scattered Clouds
2:52 PM 75.0 °F 64.9 °F 71% 29.93 in 8.0 mi Variable 5.8 mph - N/A   Scattered Clouds
2:59 PM 75.2 °F 64.4 °F 69% 29.95 in 7.0 mi ENE 8.1 mph - N/A   Overcast
3:38 PM 77.0 °F 64.4 °F 65% 29.95 in 7.0 mi ENE 6.9 mph - N/A   Overcast
3:52 PM 75.9 °F 64.9 °F 69% 29.93 in 7.0 mi NE 5.8 mph - N/A   Overcast
4:52 PM 79.0 °F 64.9 °F 62% 29.92 in 9.0 mi North 5.8 mph - N/A   Mostly Cloudy
5:52 PM 78.1 °F 64.0 °F 62% 29.93 in 9.0 mi NNE 6.9 mph - N/A   Mostly Cloudy
5:59 PM 78.8 °F 64.4 °F 61% 29.95 in 8.0 mi North 9.2 mph - N/A   Mostly Cloudy
6:52 PM 77.0 °F 64.0 °F 64% 29.94 in 10.0 mi North 6.9 mph - N/A   Mostly Cloudy
7:52 PM 75.0 °F 63.0 °F 66% 29.94 in 10.0 mi NE 9.2 mph - N/A   Scattered Clouds
8:52 PM 73.0 °F 64.0 °F 73% 29.96 in 10.0 mi NNE 6.9 mph - N/A   Scattered Clouds
9:52 PM 70.0 °F 64.0 °F 81% 29.97 in 8.0 mi North 5.8 mph - N/A   Scattered Clouds
10:52 PM 69.1 °F 64.0 °F 84% 29.99 in 7.0 mi North 3.5 mph - N/A   Scattered Clouds
11:52 PM 68.0 °F 63.0 °F 84% 29.99 in 6.0 mi NNE 3.5 mph - N/A   Haze